Weather History for Molokai, HI

Change the Weather History Date:

Tuesday, November 20, 2012

  Actual Average Record
Temperature  
Mean Temperature 76 °F -  
Max Temperature 81 °F 81 °F 86 °F (1980)
Min Temperature 71 °F 68 °F 57 °F (1985)
Cooling Degree Days 12    
Growing Degree Days 26 (Base 50)    
Moisture  
Dew Point 61 °F    
Average Humidity 62    
Maximum Humidity 73    
Minimum Humidity 47    
Precipitation  
Precipitation 0.00 in - - ()
Sea Level Pressure  
Sea Level Pressure 30.04 in    
Wind  
Wind Speed 6 mph (NE)    
Max Wind Speed 13 mph    
Max Gust Speed 21 mph    
Visibility 10 miles    
Events      
Averages and records for this station are not official NWS values.
T = Trace of Precipitation, MM = Missing Value Source: NWS Daily Summary

Daily Weather History Graph

Daily Weather History Graph

Search for Another Location

Airport:

Trip Planner

Search our weather history database for the weather conditions in past years. The results will help you decide how hot, cold, wet, or windy it might be!

Date:

Astronomy

Nov. 20, 2012 Rise Set
Actual Time 6:42 AM HST 5:45 PM HST
Civil Twilight 6:18 AM HST 6:09 PM HST
Nautical Twilight 5:51 AM HST 6:36 PM HST
Astronomical Twilight 5:25 AM HST 7:03 PM HST
Moon 12:49 PM HST (11/20) 12:03 AM HST (11/20)
Length of Visible Light 11h 50m
Length of Day
11h 03m
First Quarter, 53% of the Moon is Illuminated
Nov 20
First Quarter
Nov 28
Full
Dec 6
Last Quarter
Dec 12
New
Dec 19
First Quarter

Hourly Weather History & Observations

Time (HST) Temp. Heat Index Dew Point Humidity Pressure Visibility Wind Dir Wind Speed Gust Speed Precip Events Conditions
12:54 AM 73.0 °F - 62.1 °F 68% 30.07 in 10.0 mi NE 6.9 mph - N/A   Clear
1:54 AM 73.0 °F - 62.1 °F 68% 30.06 in 10.0 mi NNE 5.8 mph - N/A   Clear
2:54 AM 72.0 °F - 61.0 °F 68% 30.05 in 10.0 mi ENE 6.9 mph - N/A   Clear
3:54 AM 73.0 °F - 62.1 °F 68% 30.04 in 10.0 mi NNE 4.6 mph - N/A   Clear
4:54 AM 72.0 °F - 63.0 °F 73% 30.04 in 10.0 mi ENE 6.9 mph - N/A   Clear
5:54 AM 72.0 °F - 63.0 °F 73% 30.05 in 10.0 mi NE 5.8 mph - N/A   Clear
6:54 AM 72.0 °F - 63.0 °F 73% 30.06 in 10.0 mi NNE 5.8 mph - N/A   Scattered Clouds
7:54 AM 75.0 °F - 63.0 °F 66% 30.06 in 10.0 mi NE 11.5 mph 20.7 mph N/A   Overcast
8:54 AM 77.0 °F - 61.0 °F 58% 30.09 in 10.0 mi Calm Calm - N/A   Overcast
9:54 AM 80.1 °F 81.5 °F 63.0 °F 56% 30.09 in 10.0 mi NE 12.7 mph 20.7 mph N/A   Mostly Cloudy
10:54 AM 79.0 °F - 62.1 °F 56% 30.07 in 10.0 mi NNE 12.7 mph - N/A   Scattered Clouds
11:54 AM 80.1 °F 81.1 °F 61.0 °F 52% 30.04 in 10.0 mi NE 9.2 mph - N/A   Scattered Clouds
12:54 PM 81.0 °F 81.3 °F 59.0 °F 47% 30.02 in 10.0 mi NE 8.1 mph 17.3 mph N/A   Clear
1:54 PM 81.0 °F 81.6 °F 60.1 °F 49% 29.99 in 10.0 mi NNE 9.2 mph - N/A   Scattered Clouds
2:54 PM 79.0 °F - 60.1 °F 52% 29.98 in 10.0 mi NE 9.2 mph 18.4 mph N/A   Scattered Clouds
3:54 PM 78.1 °F - 61.0 °F 56% 29.98 in 10.0 mi NE 4.6 mph - N/A   Clear
4:54 PM 75.9 °F - 61.0 °F 60% 29.99 in 10.0 mi NE 5.8 mph - N/A   Scattered Clouds
5:54 PM 75.0 °F - 61.0 °F 62% 30.01 in 10.0 mi NNE 5.8 mph - N/A   Scattered Clouds
6:54 PM 73.9 °F - 61.0 °F 64% 30.02 in 10.0 mi NNE 4.6 mph - N/A   Clear
7:54 PM 73.0 °F - 60.1 °F 64% 30.03 in 10.0 mi Calm Calm - N/A   Clear
8:54 PM 73.0 °F - 61.0 °F 66% 30.04 in 10.0 mi NE 3.5 mph - N/A   Clear
9:54 PM 73.0 °F - 61.0 °F 66% 30.03 in 10.0 mi NNE 3.5 mph - N/A   Clear
10:54 PM 72.0 °F - 60.1 °F 66% 30.04 in 10.0 mi Calm Calm - N/A   Clear
11:54 PM 71.1 °F - 60.1 °F 68% 30.02 in 10.0 mi ENE 4.6 mph - N/A   Scattered Clouds